STARLINK-1740, 46566

Orbit data source: Space-Track

STARLINK-1740, 46566 is a payload satellite owned by SpaceX/Seattle (US) in LEO that was launched on Tue, 06 Oct 2020 UTC via an FALCON 9 launch vehicle from the Air Force Eastern Test Range (AFETR). Payload-class satellites include a variety of spacecraft equipped with specific instruments for various scientific and technological missions. These include communications satellites like Starlink; space stations such as the ISS; scientific satellites like the Hubble; Earth observation satellites from companies like Planet Labs, Umbra, and HawkEye 360; GPS; miniature CubeSats for education and research; and military/defense satellites.

Loading next visibility...
Identifier
46566, 2020-070AL
Orbit
LEO
Country
Flag of USUS
Related business
Manufacturer
SpaceX/Seattle
Mission
Partially operational Commercial Communications
Bus & Motor
STARLINK, Unknown motor
Mass
260 kg wet, ~248 kg dry
Launch date (UTC)
2020-10-06 (5 years ago)
Launch vehicle
FALCON 9
Launch site
Air Force Eastern Test Range (AFETR)
Object type
Payload
Rocket body
Debris
Shape & HBR
Box + 1 Pan, 4.4 m
Radar Cross Section
13.562 m², Large (>1 m²)

Expand to show TLE details & history
Last TLE update: 1 day ago

TLE from 1 day ago
0 STARLINK-1740
1 46566U 20070AL  25260.03051878  .00102224  00000-0  27693-2 0  9993
2 46566  53.0486 209.5760 0006406  76.7737 283.3979 15.36840797273707
Epoch: 2025-09-17T00:43Z
TLE epoch observation values (Epoch: 2025-09-17T00:43:56.822Z)
Latitude
-0.00007°
Longitude
-157.62312°
Altitude
455.337 km
Speed
7.641 km/s
True Right ascension
13h 58m 18s
True Declination
0° 00' 00"
Sunlit
Object was in daylight at epoch
Visualization orbit readout
Latitude
Unknown
Longitude
Unknown
Altitude
Unknown
Speed
Unknown
Apparent Right ascension
Unknown
Apparent Declination
Unknown
Sunlit
N/A
Visualization observer readout
Local Sidereal Time
02:39:00
Azimuth
Unknown
Elevation
Unknown
Doppler factor
Unknown
Orbital elements
Apogee altitude
460.111 km
Perigee altitude
451.356 km
Semi-major axis
6,833.87 km
Eccentricity
0.00064
Inclination
53.0486°
RAAN
209.576°
Arg. of periapsis
76.7737°
True anomaly
283.32648°
Mean anomaly
283.3979°
Eccentric anomaly
283.36219°
Mean motion
3.84187 °/min
Orbital period
93.7 mins
BSTAR
0.0027693
Loading maneuver chart data...
Computing Atmospheric mass density...
Loading historical data...
Loading historical data...
Loading historical data...
Loading historical data...
Loading historical data...
Loading historical data...
Loading historical data...

Documentation

Showing up to 5 results
|